Location: Unspecified
(0.0000°N, 0.0000°E)
Time: 22:18:20
(UTC+00:00)

Courier 1B - Pass Details

Date: 14 February 2026
Orbit: 962 x 1208 km, 28.3° (Epoch: 12 March)

Event Time Altitude Azimuth Distance (km) Brightness Sun altitude
Rises 20:29:51 0° 292° (WNW) 3,947 11.4 -33.0°
Reaches altitude 10° 20:35:08 10° 323° (NW) 3,047 10.3 -34.2°
Maximum altitude 20:37:31 12° 342° (NNW) 2,950 10.0 -34.8°
Enters shadow 20:37:57 12° 345° (NNW) 2,958 10.0 -34.9°
